Location: Unspecified
(39.1734°N, 0.0000°E)
Time: 11:11:23
(UTC+00:00)

Hubble Space Telescope - Visible Passes

Search period start: 24 September 2020 00:00
Search period end: 04 October 2020 00:00
Orbit: 536 x 540 km, 28.5° (Epoch: 23 September)

Date Brightness Start Highest point End Pass type
(mag) Time Alt. Az. Time Alt. Az. Time Alt. Az.
25 Sep 3.4 04:41:55 10° S 04:42:40 10° SSE 04:43:25 10° SSE visible
26 Sep 3.2 04:30:09 10° S 04:31:49 12° SSE 04:33:28 10° SE visible
27 Sep 3.0 04:19:46 12° S 04:20:57 14° SSE 04:23:05 10° SE visible
28 Sep 2.9 04:09:44 15° S 04:10:07 15° S 04:12:32 10° SE visible
29 Sep 2.9 03:59:40 16° SSE 03:59:40 16° SSE 04:01:54 10° SE visible
30 Sep 3.0 03:49:37 16° SSE 03:49:37 16° SSE 03:51:12 10° SE visible
30 Sep 2.8 05:26:19 10° SW 05:28:57 17° S 05:31:36 10° SSE visible
01 Oct 3.3 03:39:34 14° SE 03:39:34 14° SE 03:40:27 10° SE visible
01 Oct 2.9 05:15:40 10° SW 05:18:07 15° S 05:20:34 10° SSE visible
02 Oct 3.6 03:29:32 10° SE 03:29:32 10° SE 03:29:39 10° SE visible
02 Oct 2.9 05:05:07 10° SW 05:07:16 14° SSW 05:09:26 10° SSE visible
03 Oct 3.0 04:54:52 10° SW 04:56:25 12° SSW 04:58:08 10° S visible
